Location: Newark
(54.0500°N, 12.8333°E)
Time: 10:29:36
(UTC+00:00)

Transit 4A - Pass Details

Date: 01 February 2020
Orbit: 872 x 973 km, 66.8° (Epoch: 19 February)

Event Time Altitude Azimuth Distance (km) Brightness Sun altitude
Exits shadow 05:25:29 - 231° (SW) 3,173 10.3 -13.4°
Reaches altitude 10° 05:27:06 10° 233° (SW) 2,571 9.8 -13.2°
Maximum altitude 05:33:01 66° 316° (NW) 964 7.8 -12.3°
Drops below altitude 10° 05:38:51 10° 39° (NE) 2,538 10.5 -11.5°
Sets 05:41:22 0° 43° (NE) 3,475 11.3 -11.1°
